| time (UTC) | temp F | wind direction | speed MPH | gust MPH | rain 1hr in | rain 24hr in | rain mn in | humidity % | barometer mb |
| 20260509174751 | 67 | 315 | 3.0 | 130.0 | 0.00 | 0.00 | 0.00 | 42 | 1006.4 |
| 20260509174455 | 67 | 315 | 3.0 | 130.0 | 0.00 | 0.00 | 0.00 | 42 | 1006.4 |
| 20260509172058 | 69 | 337 | 1.0 | 9.0 | 0.00 | 0.00 | 0.00 | 41 | 1006.5 |
| 20260509171449 | 69 | 303 | 5.0 | 8.0 | 0.00 | 0.00 | 0.00 | 41 | 1006.7 |
| 20260509171251 | 69 | 315 | 6.0 | 8.0 | 0.00 | 0.00 | 0.00 | 41 | 1006.7 |
| 20260509164110 | 70 | 315 | 1.0 | 125.0 | 0.00 | 0.00 | 0.00 | 43 | 1006.6 |
| 20260509163957 | 70 | 315 | 125.0 | 125.0 | 0.00 | 0.00 | 0.00 | 43 | 1006.7 |
| 20260509161604 | 68 | 315 | 4.0 | 5.0 | 0.00 | 0.00 | 0.00 | 44 | 1006.6 |
| 20260509155311 | 66 | 303 | 9.0 | 9.0 | 0.00 | 0.00 | 0.00 | 45 | 1006.8 |
| 20260509154527 | 66 | 315 | 8.0 | 11.0 | 0.00 | 0.00 | 0.00 | 45 | 1006.8 |
| 20260509153922 | 66 | 315 | 9.0 | 9.0 | 0.00 | 0.00 | 0.00 | 44 | 1006.7 |
| 20260509152703 | 67 | 315 | 7.0 | 11.0 | 0.00 | 0.00 | 0.00 | 43 | 1006.7 |
| 20260509152255 | 67 | 315 | 7.0 | 9.0 | 0.00 | 0.00 | 0.00 | 43 | 1006.8 |
| 20260509151451 | 67 | 315 | 6.0 | 12.0 | 0.00 | 0.00 | 0.00 | 42 | 1006.8 |
| 20260509151042 | 67 | 315 | 8.0 | 13.0 | 0.00 | 0.00 | 0.00 | 42 | 1006.9 |
| 20260509144638 | 68 | 315 | 8.0 | 9.0 | 0.00 | 0.00 | 0.00 | 42 | 1007.0 |
| 20260509142008 | 68 | 315 | 7.0 | 11.0 | 0.00 | 0.00 | 0.00 | 41 | 1007.4 |
| 20260509141807 | 68 | 315 | 6.0 | 13.0 | 0.00 | 0.00 | 0.00 | 41 | 1007.5 |
| 20260509140954 | 69 | 315 | 6.0 | 10.0 | 0.00 | 0.00 | 0.00 | 41 | 1007.6 |
| 20260509140548 | 69 | 315 | 10.0 | 11.0 | 0.00 | 0.00 | 0.00 | 40 | 1007.8 |
| 20260509140144 | 69 | 315 | 7.0 | 11.0 | 0.00 | 0.00 | 0.00 | 40 | 1007.8 |
| 20260509135942 | 69 | 315 | 8.0 | 11.0 | 0.00 | 0.00 | 0.00 | 40 | 1007.8 |
| 20260509135740 | 69 | 315 | 11.0 | 12.0 | 0.00 | 0.00 | 0.00 | 40 | 1007.7 |
| 20260509135335 | 69 | 315 | 6.0 | 12.0 | 0.00 | 0.00 | 0.00 | 40 | 1007.8 |
| 20260509135133 | 69 | 315 | 5.0 | 10.0 | 0.00 | 0.00 | 0.00 | 40 | 1007.8 |
| 20260509134526 | 70 | 315 | 9.0 | 11.0 | 0.00 | 0.00 | 0.00 | 39 | 1007.8 |
| 20260509134328 | 70 | 315 | 11.0 | 11.0 | 0.00 | 0.00 | 0.00 | 40 | 1007.8 |
| 20260509134124 | 70 | 315 | 9.0 | 13.0 | 0.00 | 0.00 | 0.00 | 39 | 1007.7 |
| 20260509133922 | 70 | 315 | 12.0 | 13.0 | 0.00 | 0.00 | 0.00 | 39 | 1007.7 |
| 20260509133517 | 70 | 315 | 8.0 | 15.0 | 0.00 | 0.00 | 0.00 | 39 | 1007.6 |
| 20260509133116 | 70 | 315 | 7.0 | 10.0 | 0.00 | 0.00 | 0.00 | 39 | 1007.7 |
| 20260509132912 | 70 | 315 | 7.0 | 8.0 | 0.00 | 0.00 | 0.00 | 39 | 1007.8 |
| 20260509131452 | 70 | 303 | 8.0 | 11.0 | 0.00 | 0.00 | 0.00 | 38 | 1007.8 |
| 20260509131250 | 70 | 292 | 11.0 | 11.0 | 0.00 | 0.00 | 0.00 | 38 | 1007.9 |
| 20260509125834 | 69 | 225 | 8.0 | 11.0 | 0.00 | 0.00 | 0.00 | 39 | 1008.1 |
| 20260509125632 | 69 | 0 | 9.0 | 9.0 | 0.00 | 0.00 | 0.00 | 39 | 1008.1 |
| 20260509124353 | 68 | 0 | 8.0 | 9.0 | 0.00 | 0.00 | 0.00 | 39 | 1008.4 |
| 20260509124014 | 68 | 0 | 8.0 | 9.0 | 0.00 | 0.00 | 0.00 | 39 | 1008.4 |
| 20260509123815 | 68 | 0 | 8.0 | 9.0 | 0.00 | 0.00 | 0.00 | 39 | 1008.3 |
| 20260509123615 | 68 | 225 | 7.0 | 10.0 | 0.00 | 0.00 | 0.00 | 40 | 1008.4 |
| 20260509122401 | 68 | 337 | 6.0 | 12.0 | 0.00 | 0.00 | 0.00 | 39 | 1008.3 |
| 20260509122159 | 68 | 0 | 10.0 | 12.0 | 0.00 | 0.00 | 0.00 | 39 | 1008.3 |
| 20260509121019 | 68 | 315 | 15.0 | 16.0 | 0.00 | 0.00 | 0.00 | 38 | 1008.3 |
| 20260509120818 | 68 | 315 | 15.0 | 16.0 | 0.00 | 0.00 | 0.00 | 39 | 1008.2 |
| 20260509115610 | 68 | 315 | 10.0 | 14.0 | 0.00 | 0.00 | 0.00 | 38 | 1008.4 |
| 20260509115001 | 69 | 315 | 11.0 | 11.0 | 0.00 | 0.00 | 0.00 | 38 | 1008.5 |
| 20260509114915 | 69 | 326 | 11.0 | 11.0 | 0.00 | 0.00 | 0.00 | 38 | 1008.4 |
| 20260509114911 | 69 | 326 | 11.0 | 11.0 | 0.00 | 0.00 | 0.00 | 38 | 1008.4 |
| 20260509114755 | 69 | 326 | 11.0 | 11.0 | 0.00 | 0.00 | 0.00 | 38 | 1008.4 |
| 20260509114156 | 69 | 315 | 11.0 | 14.0 | 0.00 | 0.00 | 0.00 | 37 | 1008.5 |
| 20260509113743 | 69 | 315 | 7.0 | 15.0 | 0.00 | 0.00 | 0.00 | 37 | 1008.5 |
| 20260509113544 | 69 | 315 | 12.0 | 14.0 | 0.00 | 0.00 | 0.00 | 37 | 1008.6 |
| 20260509112934 | 69 | 337 | 9.0 | 14.0 | 0.00 | 0.00 | 0.00 | 37 | 1008.7 |
| 20260509112532 | 69 | 315 | 7.0 | 11.0 | 0.00 | 0.00 | 0.00 | 38 | 1008.8 |
| 20260509112327 | 69 | 315 | 8.0 | 11.0 | 0.00 | 0.00 | 0.00 | 38 | 1008.9 |
| 20260509111923 | 69 | 315 | 9.0 | 11.0 | 0.00 | 0.00 | 0.00 | 38 | 1008.8 |
| 20260509111721 | 69 | 315 | 7.0 | 12.0 | 0.00 | 0.00 | 0.00 | 37 | 1008.8 |
| 20260509111610 | 69 | 326 | 12.0 | 13.0 | 0.00 | 0.00 | 0.00 | 36 | 1008.9 |
| 20260509111518 | 69 | 315 | 11.0 | 12.0 | 0.00 | 0.00 | 0.00 | 36 | 1008.8 |
| 20260509111316 | 69 | 326 | 12.0 | 13.0 | 0.00 | 0.00 | 0.00 | 36 | 1008.9 |
| 20260509110707 | 70 | 315 | 10.0 | 13.0 | 0.00 | 0.00 | 0.00 | 36 | 1009.2 |
| 20260509110449 | 70 | 315 | 11.0 | 11.0 | 0.00 | 0.00 | 0.00 | 36 | 1009.2 |
| 20260509110059 | 70 | 315 | 11.0 | 11.0 | 0.00 | 0.00 | 0.00 | 36 | 1009.2 |
| 20260509105703 | 70 | 315 | 6.0 | 10.0 | 0.00 | 0.00 | 0.00 | 35 | 1009.3 |
| 20260509105453 | 70 | 315 | 7.0 | 10.0 | 0.00 | 0.00 | 0.00 | 35 | 1009.3 |
| 20260509105048 | 70 | 315 | 6.0 | 10.0 | 0.00 | 0.00 | 0.00 | 35 | 1009.3 |
| 20260509104731 | 70 | 337 | 8.0 | 9.0 | 0.00 | 0.00 | 0.00 | 35 | 1009.2 |
| 20260509104644 | 70 | 337 | 8.0 | 9.0 | 0.00 | 0.00 | 0.00 | 35 | 1009.2 |
| 20260509104036 | 70 | 337 | 10.0 | 10.0 | 0.00 | 0.00 | 0.00 | 35 | 1009.2 |
| 20260509103632 | 70 | 315 | 8.0 | 9.0 | 0.00 | 0.00 | 0.00 | 35 | 1009.1 |
| 20260509103433 | 70 | 348 | 5.0 | 9.0 | 0.00 | 0.00 | 0.00 | 34 | 1009.2 |
| 20260509103232 | 70 | 315 | 7.0 | 9.0 | 0.00 | 0.00 | 0.00 | 34 | 1009.1 |
| 20260509102823 | 71 | 337 | 7.0 | 7.0 | 0.00 | 0.00 | 0.00 | 34 | 1009.1 |
| 20260509102422 | 71 | 348 | 5.0 | 11.0 | 0.00 | 0.00 | 0.00 | 33 | 1009.2 |
| 20260509101812 | 72 | 315 | 8.0 | 11.0 | 0.00 | 0.00 | 0.00 | 33 | 1009.1 |
| 20260509101636 | 73 | 315 | 7.0 | 9.0 | 0.00 | 0.00 | 0.00 | 32 | 1009.1 |
| 20260509101413 | 72 | 315 | 9.0 | 10.0 | 0.00 | 0.00 | 0.00 | 32 | 1009.2 |
| 20260509101002 | 73 | 315 | 7.0 | 9.0 | 0.00 | 0.00 | 0.00 | 32 | 1009.1 |
| 20260509100603 | 73 | 315 | 6.0 | 7.0 | 0.00 | 0.00 | 0.00 | 31 | 1009.2 |
| 20260509100556 | 73 | 315 | 6.0 | 8.0 | 0.00 | 0.00 | 0.00 | 32 | 1009.2 |
| 20260509100359 | 73 | 0 | 7.0 | 7.0 | 0.00 | 0.00 | 0.00 | 31 | 1009.2 |
| 20260509095951 | 73 | 315 | 6.0 | 8.0 | 0.00 | 0.00 | 0.00 | 32 | 1009.2 |
| 20260509095724 | 74 | 326 | 6.0 | 7.0 | 0.00 | 0.00 | 0.00 | 31 | 1009.2 |
| 20260509095547 | 74 | 326 | 6.0 | 7.0 | 0.00 | 0.00 | 0.00 | 31 | 1009.2 |
| 20260509094942 | 74 | 0 | 7.0 | 7.0 | 0.00 | 0.00 | 0.00 | 32 | 1009.4 |
| 20260509094738 | 73 | 315 | 3.0 | 7.0 | 0.00 | 0.00 | 0.00 | 32 | 1009.3 |
| 20260509094536 | 73 | 315 | 4.0 | 7.0 | 0.00 | 0.00 | 0.00 | 32 | 1009.3 |
| 20260509094130 | 73 | 326 | 5.0 | 7.0 | 0.00 | 0.00 | 0.00 | 32 | 1009.3 |
| 20260509093529 | 73 | 315 | 2.0 | 7.0 | 0.00 | 0.00 | 0.00 | 32 | 1009.4 |
| 20260509093322 | 73 | 315 | 5.0 | 7.0 | 0.00 | 0.00 | 0.00 | 32 | 1009.4 |
| 20260509092917 | 72 | 0 | 0.0 | 8.0 | 0.00 | 0.00 | 0.00 | 32 | 1009.3 |
| 20260509092716 | 72 | 337 | 3.0 | 8.0 | 0.00 | 0.00 | 0.00 | 32 | 1009.3 |
| 20260509091704 | 72 | 315 | 7.0 | 10.0 | 0.00 | 0.00 | 0.00 | 33 | 1009.1 |
| 20260509091502 | 72 | 315 | 10.0 | 10.0 | 0.00 | 0.00 | 0.00 | 33 | 1009.2 |
| 20260509091057 | 72 | 315 | 7.0 | 9.0 | 0.00 | 0.00 | 0.00 | 34 | 1009.3 |
| 20260509090248 | 72 | 337 | 7.0 | 7.0 | 0.00 | 0.00 | 0.00 | 35 | 1009.3 |
| 20260509090045 | 71 | 315 | 3.0 | 5.0 | 0.00 | 0.00 | 0.00 | 35 | 1009.2 |
| 20260509085439 | 71 | 315 | 2.0 | 3.0 | 0.00 | 0.00 | 0.00 | 35 | 1009.3 |
| 20260509083822 | 70 | 292 | 4.0 | 4.0 | 0.00 | 0.00 | 0.00 | 36 | 1009.2 |
| 20260509081032 | 68 | 315 | 4.0 | 6.0 | 0.00 | 0.00 | 0.00 | 38 | 1009.1 |
| 20260509080952 | 68 | 315 | 4.0 | 6.0 | 0.00 | 0.00 | 0.00 | 38 | 1009.1 |
| 20260509080544 | 68 | 292 | 4.0 | 6.0 | 0.00 | 0.00 | 0.00 | 38 | 1009.1 |
| 20260509080343 | 68 | 292 | 5.0 | 6.0 | 0.00 | 0.00 | 0.00 | 38 | 1009.1 |
| 20260509080004 | 67 | 292 | 2.0 | 126.0 | 0.00 | 0.00 | 0.00 | 40 | 1009.2 |
| 20260509075940 | 67 | 292 | 2.0 | 3.0 | 0.00 | 0.00 | 0.00 | 39 | 1009.1 |
| 20260509075537 | 67 | 292 | 2.0 | 126.0 | 0.00 | 0.00 | 0.00 | 40 | 1009.2 |
| 20260509075333 | 67 | 292 | 2.0 | 126.0 | 0.00 | 0.00 | 0.00 | 40 | 1009.0 |
| 20260509075231 | 67 | 292 | 126.0 | 126.0 | 0.00 | 0.00 | 0.00 | 41 | 1009.1 |
| 20260509074826 | 66 | 45 | 1.0 | 2.0 | 0.00 | 0.00 | 0.00 | 41 | 1009.1 |
| 20260509073812 | 66 | 292 | 1.0 | 1.0 | 0.00 | 0.00 | 0.00 | 41 | 1009.0 |
| 20260509073630 | 66 | 292 | 3.0 | 4.0 | 0.00 | 0.00 | 0.00 | 41 | 1009.1 |
| 20260509073426 | 65 | 292 | 3.0 | 4.0 | 0.00 | 0.00 | 0.00 | 41 | 1009.1 |
| 20260509073224 | 65 | 315 | 2.0 | 3.0 | 0.00 | 0.00 | 0.00 | 41 | 1009.1 |
| 20260509072417 | 65 | 337 | 0.0 | 1.0 | 0.00 | 0.00 | 0.00 | 42 | 1009.2 |
| 20260509072052 | 64 | 337 | 0.0 | 2.0 | 0.00 | 0.00 | 0.00 | 42 | 1009.2 |
| 20260509070511 | 63 | 326 | 123.0 | 123.0 | 0.00 | 0.00 | 0.00 | 44 | 1009.4 |
| 20260509070352 | 63 | 337 | 123.0 | 123.0 | 0.00 | 0.00 | 0.00 | 44 | 1009.5 |
| 20260509065746 | 63 | 292 | 0.0 | 1.0 | 0.00 | 0.00 | 0.00 | 44 | 1009.4 |
| 20260509064808 | 62 | 337 | 1.0 | 1.0 | 0.00 | 0.00 | 0.00 | 44 | 1009.5 |
| 20260509064359 | 61 | 292 | 0.0 | 0.0 | 0.00 | 0.00 | 0.00 | 43 | 1009.6 |
| 20260509064157 | 61 | 292 | 0.0 | 1.0 | 0.00 | 0.00 | 0.00 | 43 | 1009.5 |
| 20260509063959 | 61 | 292 | 0.0 | 1.0 | 0.00 | 0.00 | 0.00 | 43 | 1009.6 |
| 20260509063550 | 61 | 292 | 0.0 | 3.0 | 0.00 | 0.00 | 0.00 | 43 | 1009.5 |
| 20260509063353 | 60 | 292 | 2.0 | 3.0 | 0.00 | 0.00 | 0.00 | 43 | 1009.5 |
| 20260509062511 | 60 | 45 | 0.0 | 125.0 | 0.00 | 0.00 | 0.00 | 42 | 1009.5 |
| 20260509062309 | 60 | 247 | 2.0 | 125.0 | 0.00 | 0.00 | 0.00 | 42 | 1009.3 |
| 20260509062115 | 60 | 0 | 0.0 | 1.0 | 0.00 | 0.00 | 0.00 | 44 | 1009.4 |
| 20260509061758 | 60 | 45 | 0.0 | 1.0 | 0.00 | 0.00 | 0.00 | 44 | 1009.4 |
| 20260509061559 | 60 | 0 | 0.0 | 1.0 | 0.00 | 0.00 | 0.00 | 44 | 1009.4 |
| 20260509061352 | 59 | 0 | 0.0 | 2.0 | 0.00 | 0.00 | 0.00 | 44 | 1009.4 |
| 20260509061153 | 59 | 292 | 1.0 | 125.0 | 0.00 | 0.00 | 0.00 | 44 | 1009.3 |
| 20260509060722 | 59 | 326 | 0.0 | 3.0 | 0.00 | 0.00 | 0.00 | 42 | 1009.3 |
| 20260509060520 | 59 | 315 | 2.0 | 3.0 | 0.00 | 0.00 | 0.00 | 43 | 1009.3 |
| 20260509055918 | 59 | 315 | 2.0 | 3.0 | 0.00 | 0.00 | 0.00 | 41 | 1009.2 |
| 20260509055710 | 58 | 315 | 3.0 | 3.0 | 0.00 | 0.00 | 0.00 | 41 | 1009.2 |
| 20260509055509 | 58 | 292 | 3.0 | 3.0 | 0.00 | 0.00 | 0.00 | 41 | 1009.3 |
| 20260509055307 | 58 | 292 | 2.0 | 2.0 | 0.00 | 0.00 | 0.00 | 42 | 1009.3 |
| 20260509055107 | 58 | 292 | 1.0 | 1.0 | 0.00 | 0.00 | 0.00 | 41 | 1009.4 |
| 20260509054457 | 58 | 45 | 1.0 | 3.0 | 0.00 | 0.00 | 0.00 | 41 | 1009.3 |
| 20260509054053 | 58 | 45 | 2.0 | 3.0 | 0.00 | 0.00 | 0.00 | 42 | 1009.2 |
| 20260509053914 | 58 | 45 | 2.0 | 2.0 | 0.00 | 0.00 | 0.00 | 42 | 1009.2 |
| 20260509053519 | 58 | 45 | 2.0 | 4.0 | 0.00 | 0.00 | 0.00 | 42 | 1009.2 |
| 20260509052507 | 57 | 337 | 0.0 | 3.0 | 0.00 | 0.00 | 0.00 | 41 | 1009.1 |
| 20260509052308 | 57 | 337 | 2.0 | 3.0 | 0.00 | 0.00 | 0.00 | 40 | 1009.2 |
| 20260509051659 | 56 | 337 | 0.0 | 3.0 | 0.00 | 0.00 | 0.00 | 41 | 1009.2 |
| 20260509051500 | 56 | 337 | 1.0 | 3.0 | 0.00 | 0.00 | 0.00 | 41 | 1009.2 |
| 20260509051102 | 56 | 337 | 2.0 | 3.0 | 0.00 | 0.00 | 0.00 | 41 | 1009.2 |
| 20260509050448 | 56 | 337 | 2.0 | 2.0 | 0.00 | 0.00 | 0.00 | 40 | 1009.1 |
| 20260509045640 | 56 | 315 | 3.0 | 4.0 | 0.00 | 0.00 | 0.00 | 40 | 1009.2 |
| 20260509045030 | 56 | 315 | 4.0 | 4.0 | 0.00 | 0.00 | 0.00 | 40 | 1009.3 |
| 20260509043407 | 56 | 337 | 4.0 | 5.0 | 0.00 | 0.00 | 0.00 | 44 | 1009.3 |
| 20260509043204 | 56 | 337 | 5.0 | 5.0 | 0.00 | 0.00 | 0.00 | 43 | 1009.3 |
| 20260509043002 | 56 | 337 | 4.0 | 5.0 | 0.00 | 0.00 | 0.00 | 44 | 1009.3 |
| 20260509042803 | 56 | 337 | 4.0 | 5.0 | 0.00 | 0.00 | 0.00 | 43 | 1009.4 |
| 20260509042356 | 56 | 337 | 4.0 | 4.0 | 0.00 | 0.00 | 0.00 | 43 | 1009.3 |
| 20260509042122 | 56 | 337 | 4.0 | 5.0 | 0.00 | 0.00 | 0.00 | 43 | 1009.3 |
| 20260509041914 | 56 | 337 | 3.0 | 3.0 | 0.00 | 0.00 | 0.00 | 43 | 1009.3 |
| 20260509041711 | 56 | 337 | 2.0 | 3.0 | 0.00 | 0.00 | 0.00 | 42 | 1009.3 |
| 20260509041104 | 56 | 337 | 5.0 | 5.0 | 0.00 | 0.00 | 0.00 | 43 | 1009.2 |
| 20260509040904 | 56 | 337 | 4.0 | 5.0 | 0.00 | 0.00 | 0.00 | 42 | 1009.3 |
| 20260509040702 | 56 | 337 | 3.0 | 5.0 | 0.00 | 0.00 | 0.00 | 43 | 1009.3 |
| 20260509040555 | 56 | 337 | 4.0 | 5.0 | 0.00 | 0.00 | 0.00 | 43 | 1009.3 |
| 20260509040459 | 56 | 337 | 4.0 | 5.0 | 0.00 | 0.00 | 0.00 | 43 | 1009.3 |
| 20260509035856 | 56 | 337 | 4.0 | 4.0 | 0.00 | 0.00 | 0.00 | 42 | 1009.2 |
| 20260509035249 | 56 | 337 | 0.0 | 2.0 | 0.00 | 0.00 | 0.00 | 41 | 1009.2 |
| 20260509035041 | 56 | 315 | 0.0 | 2.0 | 0.00 | 0.00 | 0.00 | 41 | 1009.2 |
| 20260509034639 | 56 | 337 | 3.0 | 4.0 | 0.00 | 0.00 | 0.00 | 40 | 1009.2 |
| 20260509033226 | 56 | 315 | 3.0 | 124.0 | 0.00 | 0.00 | 0.00 | 45 | 1009.4 |
| 20260509032919 | 56 | 315 | 124.0 | 124.0 | 0.00 | 0.00 | 0.00 | 41 | 1009.5 |
| 20260509032733 | 56 | 292 | 1.0 | 3.0 | 0.00 | 0.00 | 0.00 | 41 | 1009.5 |
| 20260509032529 | 56 | 0 | 3.0 | 4.0 | 0.00 | 0.00 | 0.00 | 41 | 1009.5 |
| 20260509031924 | 56 | 0 | 3.0 | 4.0 | 0.00 | 0.00 | 0.00 | 41 | 1009.4 |
| 20260509031721 | 56 | 0 | 3.0 | 4.0 | 0.00 | 0.00 | 0.00 | 42 | 1009.5 |
| 20260509031518 | 56 | 0 | 3.0 | 3.0 | 0.00 | 0.00 | 0.00 | 42 | 1009.6 |
| 20260509030711 | 56 | 337 | 0.0 | 2.0 | 0.00 | 0.00 | 0.00 | 42 | 1009.5 |
| 20260509030558 | 56 | 0 | 1.0 | 2.0 | 0.00 | 0.00 | 0.00 | 42 | 1009.4 |
| 20260509030506 | 56 | 0 | 1.0 | 2.0 | 0.00 | 0.00 | 0.00 | 42 | 1009.4 |
| 20260509025902 | 56 | 225 | 1.0 | 3.0 | 0.00 | 0.00 | 0.00 | 44 | 1009.6 |
| 20260509025456 | 56 | 236 | 2.0 | 3.0 | 0.00 | 0.00 | 0.00 | 44 | 1009.6 |
| 20260509025051 | 56 | 247 | 0.0 | 2.0 | 0.00 | 0.00 | 0.00 | 43 | 1009.5 |
| 20260509024850 | 56 | 247 | 1.0 | 4.0 | 0.00 | 0.00 | 0.00 | 43 | 1009.5 |
| 20260509022539 | 56 | 236 | 1.0 | 1.0 | 0.00 | 0.00 | 0.00 | 44 | 1009.5 |
| 20260509022334 | 56 | 236 | 1.0 | 1.0 | 0.00 | 0.00 | 0.00 | 44 | 1009.4 |
| 20260509021749 | 56 | 225 | 0.0 | 2.0 | 0.00 | 0.00 | 0.00 | 45 | 1009.4 |
| 20260509021347 | 56 | 292 | 1.0 | 1.0 | 0.00 | 0.00 | 0.00 | 45 | 1009.4 |
| 20260509020945 | 56 | 225 | 0.0 | 0.0 | 0.00 | 0.00 | 0.00 | 45 | 1009.6 |
| 20260509020740 | 56 | 225 | 0.0 | 1.0 | 0.00 | 0.00 | 0.00 | 45 | 1009.6 |
| 20260509020124 | 56 | 225 | 2.0 | 3.0 | 0.00 | 0.00 | 0.00 | 45 | 1009.7 |
| 20260509015516 | 56 | 225 | 0.0 | 3.0 | 0.00 | 0.00 | 0.00 | 45 | 1009.7 |
| 20260509014912 | 57 | 292 | 1.0 | 1.0 | 0.00 | 0.00 | 0.00 | 44 | 1009.6 |
| 20260509013917 | 57 | 292 | 1.0 | 2.0 | 0.00 | 0.00 | 0.00 | 45 | 1009.6 |
| 20260509013316 | 57 | 45 | 1.0 | 3.0 | 0.00 | 0.00 | 0.00 | 45 | 1009.7 |
| 20260509012902 | 57 | 45 | 0.0 | 3.0 | 0.00 | 0.00 | 0.00 | 45 | 1009.8 |
| 20260509012700 | 57 | 45 | 2.0 | 3.0 | 0.00 | 0.00 | 0.00 | 46 | 1009.9 |
| 20260509012457 | 57 | 45 | 2.0 | 3.0 | 0.00 | 0.00 | 0.00 | 45 | 1009.9 |
| 20260509012053 | 57 | 45 | 0.0 | 1.0 | 0.00 | 0.00 | 0.00 | 45 | 1009.9 |
| 20260509011851 | 57 | 0 | 1.0 | 1.0 | 0.00 | 0.00 | 0.00 | 45 | 1009.8 |
| 20260509011451 | 57 | 45 | 3.0 | 3.0 | 0.00 | 0.00 | 0.00 | 45 | 1009.8 |
| 20260509011243 | 57 | 33 | 2.0 | 3.0 | 0.00 | 0.00 | 0.00 | 45 | 1009.9 |
| 20260509011040 | 57 | 45 | 2.0 | 5.0 | 0.00 | 0.00 | 0.00 | 45 | 1009.9 |
| 20260509010436 | 57 | 45 | 0.0 | 2.0 | 0.00 | 0.00 | 0.00 | 45 | 1010.0 |
| 20260509010235 | 57 | 45 | 1.0 | 4.0 | 0.00 | 0.00 | 0.00 | 45 | 1010.0 |
| 20260509005627 | 57 | 45 | 1.0 | 3.0 | 0.00 | 0.00 | 0.00 | 46 | 1009.9 |
| 20260509005425 | 57 | 45 | 3.0 | 3.0 | 0.00 | 0.00 | 0.00 | 46 | 1010.0 |
| 20260509005319 | 57 | 45 | 2.0 | 2.0 | 0.00 | 0.00 | 0.00 | 46 | 1009.9 |
| 20260509005218 | 57 | 45 | 0.0 | 0.0 | 0.00 | 0.00 | 0.00 | 46 | 1010.0 |
| 20260509005125 | 57 | 45 | 0.0 | 0.0 | 0.00 | 0.00 | 0.00 | 46 | 1010.0 |
| 20260509004925 | 57 | 45 | 0.0 | 2.0 | 0.00 | 0.00 | 0.00 | 47 | 1009.9 |
| 20260509004724 | 57 | 45 | 0.0 | 2.0 | 0.00 | 0.00 | 0.00 | 46 | 1010.0 |
| 20260509004646 | 57 | 292 | 0.0 | 3.0 | 0.00 | 0.00 | 0.00 | 47 | 1010.1 |
| 20260509004522 | 57 | 292 | 0.0 | 3.0 | 0.00 | 0.00 | 0.00 | 47 | 1010.1 |
| 20260509003712 | 57 | 45 | 0.0 | 0.0 | 0.00 | 0.00 | 0.00 | 47 | 1010.1 |
| 20260509003511 | 58 | 45 | 0.0 | 0.0 | 0.00 | 0.00 | 0.00 | 47 | 1010.1 |
| 20260509003125 | 58 | 45 | 0.0 | 0.0 | 0.00 | 0.00 | 0.00 | 50 | 1010.1 |
| 20260509002925 | 58 | 45 | 0.0 | 0.0 | 0.00 | 0.00 | 0.00 | 49 | 1010.2 |
| 20260509001911 | 58 | 45 | 1.0 | 1.0 | 0.00 | 0.00 | 0.00 | 47 | 1010.2 |
| 20260509001712 | 58 | 45 | 1.0 | 2.0 | 0.00 | 0.00 | 0.00 | 48 | 1010.2 |
| 20260509001506 | 58 | 45 | 1.0 | 2.0 | 0.00 | 0.00 | 0.00 | 48 | 1010.3 |
| 20260509001103 | 58 | 45 | 0.0 | 123.0 | 0.00 | 0.00 | 0.00 | 49 | 1009.9 |
| 20260508234444 | 58 | 45 | 125.0 | 125.0 | 0.00 | 0.00 | 0.00 | 48 | 1010.1 |
| 20260508233744 | 58 | 45 | 0.0 | 2.0 | 0.00 | 0.00 | 0.00 | 47 | 1010.2 |
| 20260508233542 | 58 | 303 | 0.0 | 2.0 | 0.00 | 0.00 | 0.00 | 48 | 1010.1 |
| 20260508233343 | 59 | 292 | 1.0 | 1.0 | 0.00 | 0.00 | 0.00 | 48 | 1010.2 |
| 20260508232934 | 59 | 292 | 0.0 | 1.0 | 0.00 | 0.00 | 0.00 | 47 | 1010.2 |
| 20260508232530 | 59 | 45 | 0.0 | 125.0 | 0.00 | 0.00 | 0.00 | 48 | 1010.2 |
| 20260508232427 | 59 | 45 | 125.0 | 125.0 | 0.00 | 0.00 | 0.00 | 47 | 1010.2 |
| 20260508232403 | 59 | 45 | 2.0 | 3.0 | 0.00 | 0.00 | 0.00 | 49 | 1010.2 |
| 20260508232202 | 59 | 45 | 3.0 | 3.0 | 0.00 | 0.00 | 0.00 | 47 | 1010.3 |
| 20260508232000 | 59 | 45 | 2.0 | 2.0 | 0.00 | 0.00 | 0.00 | 49 | 1010.2 |
| 20260508231555 | 59 | 45 | 1.0 | 1.0 | 0.00 | 0.00 | 0.00 | 50 | 1010.3 |
| 20260508231351 | 59 | 337 | 0.0 | 0.0 | 0.00 | 0.00 | 0.00 | 48 | 1010.2 |
| 20260508231109 | 59 | 337 | 0.0 | 2.0 | 0.00 | 0.00 | 0.00 | 49 | 1010.3 |
| 20260508230703 | 59 | 45 | 3.0 | 4.0 | 0.00 | 0.00 | 0.00 | 50 | 1010.3 |
| 20260508225853 | 59 | 337 | 1.0 | 126.0 | 0.00 | 0.00 | 0.00 | 51 | 1010.3 |
| 20260508225521 | 59 | 337 | 1.0 | 1.0 | 0.00 | 0.00 | 0.00 | 51 | 1010.3 |
| 20260508225320 | 59 | 337 | 1.0 | 2.0 | 0.00 | 0.00 | 0.00 | 54 | 1010.3 |
| 20260508224233 | 60 | 337 | 1.0 | 2.0 | 0.00 | 0.00 | 0.00 | 53 | 1010.4 |
| 20260508223625 | 60 | 315 | 0.0 | 0.0 | 0.00 | 0.00 | 0.00 | 51 | 1010.4 |
| 20260508223426 | 60 | 303 | 0.0 | 0.0 | 0.00 | 0.00 | 0.00 | 53 | 1010.3 |
| 20260508222815 | 60 | 315 | 0.0 | 0.0 | 0.00 | 0.00 | 0.00 | 52 | 1010.5 |
| 20260508222630 | 60 | 315 | 0.0 | 0.0 | 0.00 | 0.00 | 0.00 | 52 | 1010.6 |
| 20260508221317 | 60 | 315 | 125.0 | 125.0 | 0.00 | 0.00 | 0.00 | 51 | 1010.5 |
| 20260508221043 | 60 | 315 | 1.0 | 2.0 | 0.00 | 0.00 | 0.00 | 51 | 1010.3 |
| 20260508220841 | 60 | 315 | 1.0 | 2.0 | 0.00 | 0.00 | 0.00 | 51 | 1010.5 |
| 20260508215832 | 60 | 270 | 0.0 | 0.0 | 0.00 | 0.00 | 0.00 | 51 | 1010.5 |
| 20260508215404 | 60 | 337 | 0.0 | 1.0 | 0.00 | 0.00 | 0.00 | 51 | 1010.5 |
| 20260508215000 | 60 | 337 | 1.0 | 1.0 | 0.00 | 0.00 | 0.00 | 50 | 1010.2 |
| 20260508214556 | 60 | 326 | 0.0 | 0.0 | 0.00 | 0.00 | 0.00 | 49 | 1010.4 |
| 20260508213643 | 61 | 0 | 2.0 | 124.0 | 0.00 | 0.00 | 0.00 | 50 | 1010.4 |
| 20260508213338 | 61 | 337 | 124.0 | 124.0 | 0.00 | 0.00 | 0.00 | 50 | 1010.4 |
| 20260508213042 | 61 | 337 | 1.0 | 3.0 | 0.00 | 0.00 | 0.00 | 49 | 1010.5 |
| 20260508212843 | 61 | 337 | 2.0 | 2.0 | 0.00 | 0.00 | 0.00 | 49 | 1010.5 |
| 20260508212632 | 61 | 0 | 0.0 | 1.0 | 0.00 | 0.00 | 0.00 | 49 | 1010.5 |
| 20260508212430 | 61 | 348 | 1.0 | 125.0 | 0.00 | 0.00 | 0.00 | 49 | 1010.6 |
| 20260508211843 | 61 | 337 | 1.0 | 2.0 | 0.00 | 0.00 | 0.00 | 47 | 1010.5 |
| 20260508211640 | 61 | 337 | 1.0 | 3.0 | 0.00 | 0.00 | 0.00 | 48 | 1010.6 |
| 20260508211236 | 61 | 337 | 2.0 | 3.0 | 0.00 | 0.00 | 0.00 | 48 | 1010.5 |
| 20260508211037 | 61 | 303 | 1.0 | 2.0 | 0.00 | 0.00 | 0.00 | 48 | 1010.5 |
| 20260508210654 | 61 | 348 | 2.0 | 3.0 | 0.00 | 0.00 | 0.00 | 50 | 1010.5 |
| 20260508210041 | 61 | 337 | 2.0 | 2.0 | 0.00 | 0.00 | 0.00 | 48 | 1010.5 |
| 20260508205434 | 62 | 337 | 2.0 | 125.0 | 0.00 | 0.00 | 0.00 | 47 | 1010.6 |
| 20260508205332 | 62 | 337 | 125.0 | 125.0 | 0.00 | 0.00 | 0.00 | 47 | 1010.7 |
| 20260508205259 | 62 | 337 | 1.0 | 2.0 | 0.00 | 0.00 | 0.00 | 47 | 1010.6 |
| 20260508205052 | 62 | 326 | 1.0 | 2.0 | 0.00 | 0.00 | 0.00 | 47 | 1010.7 |
| 20260508204850 | 62 | 270 | 2.0 | 2.0 | 0.00 | 0.00 | 0.00 | 47 | 1010.7 |
| 20260508204648 | 62 | 270 | 0.0 | 123.0 | 0.00 | 0.00 | 0.00 | 47 | 1010.7 |
| 20260508204118 | 62 | 315 | 0.0 | 1.0 | 0.00 | 0.00 | 0.00 | 47 | 1010.6 |
| 20260508203915 | 62 | 315 | 0.0 | 2.0 | 0.00 | 0.00 | 0.00 | 46 | 1010.6 |
| 20260508203716 | 62 | 292 | 1.0 | 2.0 | 0.00 | 0.00 | 0.00 | 46 | 1010.6 |
| 20260508203511 | 62 | 292 | 0.0 | 0.0 | 0.00 | 0.00 | 0.00 | 46 | 1010.7 |
| 20260508203408 | 62 | 292 | 0.0 | 0.0 | 0.00 | 0.00 | 0.00 | 46 | 1010.7 |
| 20260508203309 | 62 | 292 | 0.0 | 0.0 | 0.00 | 0.00 | 0.00 | 46 | 1010.7 |
| 20260508202910 | 62 | 270 | 0.0 | 0.0 | 0.00 | 0.00 | 0.00 | 46 | 1010.6 |
| 20260508202516 | 62 | 270 | 1.0 | 2.0 | 0.00 | 0.00 | 0.00 | 46 | 1010.7 |
| 20260508202441 | 62 | 270 | 1.0 | 2.0 | 0.00 | 0.00 | 0.00 | 46 | 1010.7 |
| 20260508202234 | 63 | 270 | 1.0 | 2.0 | 0.00 | 0.00 | 0.00 | 46 | 1010.6 |
| 20260508202032 | 63 | 315 | 2.0 | 2.0 | 0.00 | 0.00 | 0.00 | 46 | 1010.7 |
| 20260508201830 | 63 | 0 | 2.0 | 2.0 | 0.00 | 0.00 | 0.00 | 46 | 1010.6 |
| 20260508201329 | 63 | 0 | 2.0 | 3.0 | 0.00 | 0.00 | 0.00 | 46 | 1010.7 |
| 20260508201127 | 63 | 0 | 2.0 | 3.0 | 0.00 | 0.00 | 0.00 | 45 | 1010.6 |
| 20260508200928 | 63 | 0 | 2.0 | 3.0 | 0.00 | 0.00 | 0.00 | 45 | 1010.5 |
| 20260508200727 | 63 | 0 | 0.0 | 0.0 | 0.00 | 0.00 | 0.00 | 46 | 1010.6 |
| 20260508200626 | 63 | 326 | 1.0 | 3.0 | 0.00 | 0.00 | 0.00 | 46 | 1010.7 |
| 20260508200513 | 63 | 270 | 3.0 | 4.0 | 0.00 | 0.00 | 0.00 | 46 | 1010.7 |
| 20260508200424 | 63 | 270 | 3.0 | 4.0 | 0.00 | 0.00 | 0.00 | 46 | 1010.7 |
| 20260508200226 | 63 | 270 | 3.0 | 4.0 | 0.00 | 0.00 | 0.00 | 45 | 1010.5 |
| 20260508195820 | 63 | 270 | 3.0 | 3.0 | 0.00 | 0.00 | 0.00 | 44 | 1010.5 |
| 20260508195414 | 64 | 270 | 1.0 | 3.0 | 0.00 | 0.00 | 0.00 | 44 | 1010.4 |
| 20260508195216 | 64 | 292 | 1.0 | 4.0 | 0.00 | 0.00 | 0.00 | 44 | 1010.5 |
| 20260508195011 | 64 | 292 | 3.0 | 4.0 | 0.00 | 0.00 | 0.00 | 44 | 1010.5 |
| 20260508194806 | 64 | 0 | 2.0 | 4.0 | 0.00 | 0.00 | 0.00 | 44 | 1010.5 |
| 20260508194200 | 64 | 315 | 3.0 | 3.0 | 0.00 | 0.00 | 0.00 | 43 | 1010.4 |
| 20260508194029 | 64 | 270 | 0.0 | 4.0 | 0.00 | 0.00 | 0.00 | 43 | 1010.4 |
| 20260508193957 | 64 | 270 | 0.0 | 4.0 | 0.00 | 0.00 | 0.00 | 43 | 1010.4 |
| 20260508193754 | 64 | 315 | 3.0 | 4.0 | 0.00 | 0.00 | 0.00 | 42 | 1010.2 |
| 20260508193552 | 65 | 315 | 4.0 | 5.0 | 0.00 | 0.00 | 0.00 | 42 | 1010.3 |
| 20260508192540 | 65 | 315 | 4.0 | 5.0 | 0.00 | 0.00 | 0.00 | 41 | 1010.2 |
| 20260508191529 | 66 | 270 | 2.0 | 6.0 | 0.00 | 0.00 | 0.00 | 40 | 1010.3 |
| 20260508185502 | 67 | 315 | 4.0 | 8.0 | 0.00 | 0.00 | 0.00 | 36 | 1010.3 |
| 20260508183845 | 68 | 315 | 4.0 | 4.0 | 0.00 | 0.00 | 0.00 | 35 | 1009.9 |
| 20260508183642 | 69 | 315 | 4.0 | 5.0 | 0.00 | 0.00 | 0.00 | 35 | 1009.9 |
| 20260508182428 | 69 | 270 | 2.0 | 6.0 | 0.00 | 0.00 | 0.00 | 33 | 1009.7 |
| 20260508181055 | 71 | 292 | 4.0 | 9.0 | 0.00 | 0.00 | 0.00 | 32 | 1009.4 |
| 20260508181013 | 71 | 292 | 4.0 | 9.0 | 0.00 | 0.00 | 0.00 | 32 | 1009.4 |
| 20260508180811 | 71 | 315 | 4.0 | 11.0 | 0.00 | 0.00 | 0.00 | 32 | 1009.4 |
| 20260508180705 | 71 | 315 | 3.0 | 12.0 | 0.00 | 0.00 | 0.00 | 31 | 1009.3 |
| 20260508180608 | 71 | 315 | 3.0 | 12.0 | 0.00 | 0.00 | 0.00 | 31 | 1009.3 |
| 20260508180405 | 71 | 0 | 6.0 | 12.0 | 0.00 | 0.00 | 0.00 | 31 | 1009.3 |
| 20260508175859 | 72 | 270 | 6.0 | 15.0 | 0.00 | 0.00 | 0.00 | 32 | 1009.3 |